This is the latest recevied weather packets stored in our database for station/object PA0HHN. If no packets are shown the sender has not sent any weather packets the latest 10 day(s).
| Time | Temp. | Humidity | Pressure | Rain* | Wind** | Luminosity | Snow |
|---|---|---|---|---|---|---|---|
| 1778019300 | 10° C | 84% | 1004 hPa | - | - | - | - |
| 1778018401 | 10° C | 84% | 1003.8 hPa | - | - | - | - |
| 1778017502 | 10° C | 85% | 1003.9 hPa | - | - | - | - |
| 1778016601 | 10° C | 84% | 1004.3 hPa | - | - | - | - |
| 1778015702 | 10° C | 84% | 1004.4 hPa | - | - | - | - |
| 1778014802 | 10° C | 85% | 1004.3 hPa | - | - | - | - |
| 1778013900 | 10° C | 85% | 1004.4 hPa | - | - | - | - |
| 1778013002 | 10° C | 85% | 1004.6 hPa | - | - | - | - |
| 1778012100 | 10° C | 85% | 1004.6 hPa | - | - | - | - |
| 1778011201 | 10° C | 85% | 1004.3 hPa | - | - | - | - |
| 1778010300 | 10° C | 85% | 1004.6 hPa | - | - | - | - |
| 1778009401 | 10° C | 85% | 1004.5 hPa | - | - | - | - |
| 1778005801 | 11.11° C | 85% | 1003.7 hPa | - | - | - | - |
| 1778003102 | 12.22° C | 82% | 1004 hPa | - | - | - | - |
| 1778002200 | 12.22° C | 81% | 1004 hPa | - | - | - | - |
| 1778001301 | 12.22° C | 79% | 1004.2 hPa | - | - | - | - |
| 1778000401 | 12.22° C | 78% | 1004 hPa | - | - | - | - |
| 1777999501 | 12.22° C | 79% | 1004.1 hPa | - | - | - | - |
| 1777998602 | 12.22° C | 80% | 1004.1 hPa | - | - | - | - |
| 1777997702 | 12.22° C | 79% | 1004.2 hPa | - | - | - | - |
| 1777992302 | 12.78° C | 82% | 1004.7 hPa | - | - | - | - |
| 1777991402 | 12.78° C | 83% | 1004.7 hPa | - | - | - | - |
| 1777990502 | 12.78° C | 81% | 1004.9 hPa | - | - | - | - |
| 1777989602 | 12.22° C | 83% | 1004.9 hPa | - | - | - | - |
| 1777988703 | 12.22° C | 83% | 1004.9 hPa | - | - | - | - |
* Rain since midnight (hover to see other rain measurements)
** Current wind speed in m/s (hover to see current wind gust speed)